sat.trackr.live / text

‹ back to catalog

2024-166B

NORAD 61180 · 2024-166B

PAYLOAD ACTIVE UNKNOWN

§ Identity

Operator
Country
CIS
Launch date
2024-09-17
Launch site
PLMSC
Launch vehicle
Mass (kg)
RCS (m²)

External: N2YO · Heavens-Above · Gunter

§ Orbital elements

Epoch: 2026-05-24T17:18:48.428640Z

Period
91.40 min
Inclination
96.6814°
Eccentricity
0.0004329
Mean motion
15.75465512 rev/d
Perigee alt
340.4 km
Apogee alt
346.2 km
Semi-major
6,721.4 km
B*
1.9961e-6
RAAN
36.7957°
Arg perigee
46.8146°
Mean anomaly
313.3482°
Rev number
9,704

§ Raw data

2024-166B1 61180U 24166B   26144.72139385  .00000190  00000+0  19961-5 0  99902 61180  96.6814  36.7957 0004329  46.8146 313.3482 15.75465512 97041

JSON: /api/v1/satellites/61180 · /tle

For live sub-satellite position, see the globe view (requires WebGL).

§ Visibility from observer

Set your observer location to see the next 7 days of passes ≥ 10°. The values pass through the URL so the page stays shareable.

No JS? Fill the form by hand. The geolocation button needs JavaScript.